QPF
0.03 0.06 0.07 0.06 0.05 0.05 0.03 0.03 0.02 0.02 0.00 0.00 0.00 0.00 0.00 0.00 0.00 0.00 0.00 0.01 0.01 0.01 0.03 0.04 0.03 0.03 0.03 0.03 0.04 0.04 0.06 0.08 0.10 0.11 0.10 0.07 0.03 0.02 0.01 0.01 0.00 0.00 0.01 0.01
0.04 0.05 0.04 0.04 0.05 0.05 0.04 0.04 0.02 0.02 0.01 0.00 0.00 0.00 0.00 0.00 0.00 0.00 0.00 0.00 0.01 0.01 0.02 0.04 0.04 0.03 0.03 0.03 0.03 0.03 0.04 0.05 0.06 0.07 0.10 0.10 0.07 0.06 0.04 0.02 0.02 0.02 0.02 0.02
0.03 0.03 0.03 0.04 0.05 0.06 0.04 0.04 0.03 0.02 0.02 0.01 0.01 0.01 0.00 0.00 0.00 0.00 0.00 0.00 0.00 0.00 0.01 0.02 0.03 0.03 0.03 0.02 0.02 0.03 0.03 0.05 0.05 0.05 0.08 0.09 0.08 0.08 0.07 0.04 0.04 0.03 0.02 0.02
0.03 0.01 0.03 0.04 0.05 0.05 0.04 0.02 0.02 0.03 0.04 0.02 0.01 0.02 0.01 0.01 0.00 0.00 0.00 0.00 0.00 0.00 0.01 0.01 0.02 0.03 0.03 0.02 0.02 0.03 0.03 0.04 0.05 0.05 0.06 0.06 0.05 0.04 0.03 0.03 0.03 0.04 0.04 0.03
0.04 0.02 0.02 0.04 0.04 0.04 0.04 0.02 0.02 0.02 0.04 0.03 0.02 0.02 0.02 0.01 0.01 0.01 0.00 0.00 0.00 0.00 0.01 0.01 0.02 0.03 0.04 0.04 0.03 0.03 0.03 0.04 0.05 0.05 0.05 0.06 0.06 0.04 0.03 0.03 0.02 0.01 0.01 0.01
0.04 0.02 0.02 0.03 0.03 0.04 0.04 0.03 0.03 0.03 0.04 0.05 0.02 0.02 0.03 0.03 0.02 0.01 0.01 0.00 0.00 0.00 0.01 0.01 0.02 0.02 0.03 0.04 0.04 0.04 0.04 0.04 0.05 0.05 0.05 0.05 0.06 0.05 0.04 0.03 0.03 0.02 0.01 0.01
0.03 0.03 0.03 0.03 0.04 0.05 0.05 0.07 0.10 0.10 0.09 0.06 0.03 0.02 0.04 0.04 0.02 0.01 0.01 0.01 0.01 0.01 0.01 0.02 0.02 0.02 0.03 0.03 0.04 0.04 0.05 0.05 0.05 0.05 0.04 0.04 0.05 0.06 0.05 0.04 0.03 0.02 0.01 0.01
0.03 0.04 0.05 0.04 0.05 0.06 0.06 0.07 0.08 0.09 0.07 0.04 0.03 0.03 0.04 0.03 0.01 0.01 0.01 0.01 0.01 0.02 0.02 0.02 0.01 0.02 0.02 0.03 0.03 0.03 0.04 0.05 0.05 0.05 0.05 0.04 0.04 0.05 0.06 0.05 0.04 0.03 0.02 0.02
0.05 0.04 0.04 0.05 0.04 0.03 0.06 0.06 0.04 0.04 0.03 0.05 0.04 0.02 0.02 0.01 0.01 0.01 0.01 0.01 0.01 0.02 0.03 0.03 0.02 0.02 0.02 0.02 0.03 0.03 0.04 0.04 0.04 0.05 0.05 0.06 0.05 0.04 0.04 0.04 0.04 0.04 0.03 0.02
0.06 0.05 0.04 0.04 0.05 0.04 0.04 0.04 0.04 0.05 0.04 0.05 0.04 0.02 0.02 0.02 0.02 0.02 0.02 0.02 0.02 0.02 0.03 0.03 0.02 0.01 0.01 0.02 0.02 0.03 0.03 0.03 0.03 0.04 0.04 0.05 0.05 0.05 0.05 0.04 0.03 0.03 0.03 0.02
0.06 0.06 0.05 0.05 0.06 0.04 0.04 0.05 0.05 0.05 0.04 0.04 0.03 0.03 0.04 0.04 0.03 0.04 0.03 0.02 0.02 0.03 0.03 0.03 0.02 0.01 0.01 0.02 0.02 0.02 0.02 0.02 0.02 0.03 0.03 0.04 0.04 0.04 0.04 0.04 0.03 0.03 0.03 0.02
0.04 0.04 0.05 0.05 0.04 0.02 0.02 0.03 0.05 0.06 0.04 0.03 0.03 0.03 0.03 0.03 0.03 0.03 0.04 0.04 0.03 0.02 0.02 0.02 0.02 0.02 0.01 0.02 0.02 0.02 0.02 0.02 0.01 0.01 0.02 0.02 0.03 0.03 0.04 0.04 0.04 0.03 0.02 0.02
0.05 0.05 0.05 0.05 0.04 0.02 0.02 0.01 0.03 0.04 0.04 0.03 0.03 0.02 0.02 0.03 0.02 0.03 0.03 0.03 0.02 0.01 0.01 0.01 0.02 0.02 0.02 0.01 0.01 0.02 0.02 0.03 0.01 0.01 0.01 0.01 0.02 0.02 0.03 0.03 0.03 0.02 0.02 0.02
0.06 0.06 0.06 0.05 0.03 0.03 0.02 0.02 0.02 0.03 0.05 0.03 0.02 0.02 0.02 0.03 0.03 0.02 0.03 0.02 0.02 0.01 0.01 0.01 0.02 0.02 0.02 0.02 0.01 0.01 0.01 0.02 0.02 0.01 0.01 0.01 0.01 0.01 0.01 0.01 0.02 0.02 0.02 0.01
0.04 0.04 0.02 0.03 0.02 0.02 0.02 0.01 0.02 0.02 0.03 0.03 0.03 0.03 0.03 0.04 0.04 0.04 0.04 0.03 0.02 0.02 0.02 0.01 0.02 0.02 0.02 0.02 0.02 0.01 0.01 0.01 0.02 0.02 0.01 0.01 0.01 0.01 0.01 0.01 0.01 0.01 0.02 0.01
0.03 0.04 0.02 0.02 0.02 0.02 0.01 0.01 0.01 0.02 0.02 0.02 0.02 0.02 0.03 0.03 0.03 0.03 0.03 0.04 0.03 0.03 0.02 0.02 0.03 0.03 0.03 0.03 0.03 0.02 0.02 0.02 0.01 0.01 0.01 0.01 0.00 0.00 0.01 0.01 0.01 0.01 0.01 0.01
0.03 0.03 0.03 0.03 0.03 0.02 0.03 0.03 0.02 0.02 0.02 0.02 0.02 0.03 0.03 0.02 0.02 0.03 0.03 0.03 0.04 0.04 0.03 0.03 0.03 0.03 0.03 0.03 0.03 0.03 0.02 0.02 0.01 0.01 0.01 0.01 0.00 0.00 0.00 0.00 0.00 0.00 0.00 0.00
0.02 0.02 0.02 0.03 0.03 0.04 0.04 0.03 0.02 0.02 0.02 0.02 0.02 0.03 0.03 0.03 0.03 0.02 0.02 0.03 0.03 0.03 0.03 0.03 0.02 0.02 0.02 0.02 0.02 0.02 0.03 0.03 0.03 0.02 0.01 0.01 0.01 0.01 0.00 0.01 0.01 0.01 0.01 0.01
0.01 0.02 0.03 0.02 0.02 0.02 0.02 0.02 0.02 0.03 0.03 0.02 0.03 0.03 0.03 0.03 0.02 0.02 0.02 0.02 0.03 0.03 0.03 0.03 0.02 0.01 0.02 0.02 0.02 0.02 0.03 0.04 0.06 0.05 0.03 0.02 0.01 0.01 0.01 0.01 0.01 0.01 0.01 0.01
0.01 0.02 0.03 0.02 0.02 0.01 0.01 0.01 0.01 0.02 0.02 0.02 0.02 0.02 0.03 0.02 0.02 0.03 0.02 0.03 0.03 0.02 0.02 0.02 0.02 0.02 0.02 0.02 0.02 0.02 0.03 0.04 0.04 0.05 0.06 0.05 0.03 0.02 0.02 0.01 0.01 0.01 0.01 0.01
0.03 0.03 0.03 0.02 0.02 0.02 0.01 0.01 0.01 0.03 0.03 0.02 0.02 0.02 0.02 0.02 0.03 0.03 0.02 0.02 0.03 0.03 0.03 0.02 0.02 0.02 0.02 0.02 0.02 0.03 0.03 0.03 0.04 0.03 0.03 0.04 0.04 0.04 0.03 0.02 0.02 0.02 0.02 0.02
0.03 0.03 0.03 0.02 0.02 0.02 0.02 0.01 0.02 0.03 0.02 0.02 0.02 0.02 0.02 0.03 0.02 0.02 0.02 0.02 0.02 0.02 0.03 0.03 0.03 0.03 0.02 0.02 0.02 0.03 0.03 0.03 0.03 0.03 0.03 0.02 0.03 0.04 0.04 0.04 0.03 0.03 0.02 0.02
0.03 0.04 0.04 0.03 0.03 0.03 0.02 0.02 0.02 0.02 0.02 0.02 0.02 0.03 0.02 0.02 0.02 0.02 0.02 0.02 0.03 0.03 0.03 0.03 0.04 0.04 0.03 0.02 0.02 0.03 0.03 0.03 0.03 0.03 0.03 0.03 0.02 0.02 0.03 0.03 0.03 0.02 0.02 0.01
0.02 0.03 0.03 0.02 0.02 0.02 0.02 0.01 0.01 0.01 0.02 0.02 0.02 0.02 0.02 0.02 0.02 0.02 0.02 0.02 0.03 0.03 0.03 0.03 0.03 0.04 0.04 0.03 0.03 0.03 0.02 0.03 0.03 0.04 0.04 0.04 0.03 0.02 0.02 0.02 0.02 0.02 0.01 0.01
0.02 0.02 0.02 0.02 0.02 0.01 0.01 0.01 0.01 0.01 0.01 0.01 0.02 0.02 0.02 0.02 0.03 0.02 0.02 0.02 0.02 0.03 0.03 0.03 0.03 0.03 0.04 0.03 0.03 0.03 0.03 0.03 0.03 0.04 0.04 0.04 0.04 0.03 0.02 0.02 0.02 0.01 0.01 0.01
0.02 0.02 0.02 0.02 0.02 0.02 0.01 0.01 0.01 0.01 0.01 0.01 0.01 0.02 0.02 0.02 0.02 0.02 0.03 0.03 0.03 0.03 0.03 0.03 0.02 0.03 0.03 0.03 0.03 0.03 0.03 0.03 0.03 0.03 0.03 0.03 0.04 0.03 0.02 0.01 0.01 0.01 0.01 0.01
MSLP
1016.55 1016.78 1017.00 1017.22 1017.47 1017.76 1018.08 1018.42 1018.73 1018.97 1019.10 1019.09 1018.93 1018.65 1018.28 1017.89 1017.52 1017.24 1017.08 1017.03 1017.10 1017.22 1017.37 1017.48 1017.52 1017.47 1017.34 1017.14 1016.91 1016.69 1016.53 1016.46 1016.48 1016.60 1016.78 1017.01 1017.25 1017.48 1017.68 1017.85 1018.01 1018.18 1018.37 1018.62
1016.77 1016.91 1017.05 1017.21 1017.44 1017.73 1018.10 1018.51 1018.91 1019.24 1019.46 1019.51 1019.39 1019.13 1018.76 1018.35 1017.98 1017.70 1017.56 1017.56 1017.68 1017.88 1018.10 1018.26 1018.34 1018.29 1018.13 1017.86 1017.55 1017.23 1016.95 1016.76 1016.67 1016.68 1016.77 1016.92 1017.09 1017.25 1017.39 1017.52 1017.64 1017.78 1017.95 1018.18
1017.15 1017.17 1017.19 1017.26 1017.42 1017.69 1018.07 1018.51 1018.97 1019.37 1019.66 1019.79 1019.74 1019.54 1019.22 1018.86 1018.53 1018.30 1018.20 1018.26 1018.43 1018.68 1018.95 1019.16 1019.25 1019.21 1019.03 1018.73 1018.35 1017.94 1017.58 1017.28 1017.07 1016.96 1016.94 1016.97 1017.04 1017.11 1017.18 1017.24 1017.31 1017.41 1017.54 1017.74
1017.81 1017.67 1017.54 1017.48 1017.53 1017.72 1018.03 1018.46 1018.93 1019.37 1019.71 1019.92 1019.96 1019.85 1019.63 1019.36 1019.12 1018.97 1018.94 1019.05 1019.27 1019.56 1019.85 1020.08 1020.19 1020.16 1019.97 1019.65 1019.24 1018.79 1018.35 1017.96 1017.65 1017.42 1017.27 1017.18 1017.12 1017.08 1017.06 1017.04 1017.05 1017.09 1017.17 1017.32
1018.80 1018.48 1018.18 1017.94 1017.83 1017.87 1018.08 1018.42 1018.83 1019.27 1019.64 1019.92 1020.06 1020.07 1019.98 1019.85 1019.73 1019.68 1019.74 1019.90 1020.16 1020.46 1020.76 1020.98 1021.10 1021.07 1020.89 1020.58 1020.17 1019.70 1019.23 1018.78 1018.38 1018.04 1017.76 1017.53 1017.34 1017.18 1017.05 1016.95 1016.88 1016.85 1016.87 1016.95
1020.11 1019.61 1019.11 1018.68 1018.37 1018.22 1018.25 1018.44 1018.76 1019.13 1019.50 1019.82 1020.06 1020.20 1020.26 1020.29 1020.33 1020.41 1020.56 1020.78 1021.06 1021.36 1021.64 1021.84 1021.94 1021.91 1021.75 1021.46 1021.07 1020.62 1020.14 1019.66 1019.19 1018.76 1018.37 1018.02 1017.70 1017.42 1017.18 1016.98 1016.82 1016.72 1016.67 1016.66
1021.66 1020.99 1020.30 1019.66 1019.13 1018.76 1018.58 1018.59 1018.76 1019.04 1019.37 1019.71 1020.03 1020.31 1020.54 1020.74 1020.94 1021.16 1021.41 1021.69 1021.98 1022.26 1022.50 1022.67 1022.74 1022.70 1022.54 1022.28 1021.93 1021.51 1021.05 1020.56 1020.06 1019.56 1019.08 1018.61 1018.18 1017.79 1017.45 1017.16 1016.92 1016.74 1016.60 1016.51
1023.30 1022.49 1021.64 1020.81 1020.08 1019.50 1019.10 1018.91 1018.91 1019.07 1019.34 1019.69 1020.08 1020.48 1020.88 1021.26 1021.63 1021.99 1022.34 1022.67 1022.96 1023.21 1023.40 1023.50 1023.52 1023.45 1023.30 1023.05 1022.74 1022.36 1021.93 1021.45 1020.93 1020.39 1019.84 1019.30 1018.77 1018.29 1017.86 1017.48 1017.17 1016.91 1016.69 1016.50
1024.87 1023.97 1023.01 1022.05 1021.15 1020.39 1019.81 1019.44 1019.28 1019.31 1019.52 1019.87 1020.32 1020.84 1021.38 1021.94 1022.47 1022.97 1023.41 1023.78 1024.06 1024.27 1024.38 1024.41 1024.36 1024.23 1024.05 1023.81 1023.51 1023.17 1022.76 1022.30 1021.78 1021.22 1020.63 1020.03 1019.45 1018.89 1018.39 1017.95 1017.56 1017.22 1016.92 1016.63
1026.23 1025.30 1024.29 1023.27 1022.29 1021.41 1020.70 1020.19 1019.91 1019.85 1020.00 1020.35 1020.85 1021.46 1022.14 1022.84 1023.51 1024.13 1024.64 1025.04 1025.32 1025.46 1025.50 1025.43 1025.28 1025.09 1024.85 1024.58 1024.29 1023.95 1023.56 1023.11 1022.60 1022.04 1021.43 1020.80 1020.17 1019.57 1019.02 1018.52 1018.07 1017.66 1017.27 1016.88
1027.28 1026.39 1025.42 1024.42 1023.44 1022.54 1021.78 1021.21 1020.85 1020.73 1020.85 1021.19 1021.73 1022.41 1023.19 1024.00 1024.78 1025.49 1026.06 1026.47 1026.72 1026.81 1026.75 1026.58 1026.33 1026.04 1025.73 1025.41 1025.08 1024.73 1024.33 1023.89 1023.38 1022.82 1022.20 1021.56 1020.91 1020.29 1019.70 1019.16 1018.65 1018.17 1017.70 1017.21
1028.04 1027.26 1026.39 1025.49 1024.60 1023.76 1023.03 1022.46 1022.09 1021.95 1022.05 1022.39 1022.94 1023.66 1024.50 1025.38 1026.23 1026.98 1027.58 1027.99 1028.20 1028.22 1028.08 1027.80 1027.45 1027.06 1026.67 1026.28 1025.90 1025.51 1025.10 1024.64 1024.13 1023.56 1022.95 1022.30 1021.65 1021.01 1020.40 1019.82 1019.27 1018.72 1018.17 1017.60
1028.59 1027.96 1027.26 1026.53 1025.78 1025.07 1024.43 1023.92 1023.58 1023.45 1023.55 1023.87 1024.42 1025.14 1025.98 1026.87 1027.73 1028.49 1029.08 1029.47 1029.64 1029.60 1029.38 1029.02 1028.58 1028.10 1027.62 1027.16 1026.72 1026.28 1025.84 1025.36 1024.84 1024.27 1023.65 1023.00 1022.35 1021.70 1021.07 1020.47 1019.88 1019.28 1018.66 1018.01
1029.06 1028.62 1028.11 1027.57 1027.01 1026.46 1025.96 1025.54 1025.25 1025.14 1025.22 1025.52 1026.02 1026.69 1027.49 1028.33 1029.15 1029.87 1030.42 1030.77 1030.89 1030.80 1030.52 1030.10 1029.60 1029.06 1028.52 1028.00 1027.51 1027.03 1026.55 1026.05 1025.51 1024.93 1024.31 1023.66 1023.01 1022.35 1021.72 1021.09 1020.46 1019.82 1019.16 1018.45
1029.61 1029.34 1029.04 1028.69 1028.31 1027.93 1027.55 1027.22 1026.99 1026.88 1026.94 1027.18 1027.59 1028.17 1028.86 1029.61 1030.34 1030.97 1031.45 1031.74 1031.81 1031.68 1031.37 1030.93 1030.41 1029.85 1029.28 1028.74 1028.22 1027.72 1027.22 1026.70 1026.15 1025.56 1024.93 1024.28 1023.62 1022.97 1022.32 1021.67 1021.02 1020.36 1019.66 1018.92
1030.34 1030.23 1030.09 1029.90 1029.67 1029.41 1029.13 1028.87 1028.66 1028.53 1028.53 1028.68 1028.99 1029.43 1029.98 1030.58 1031.17 1031.69 1032.07 1032.29 1032.32 1032.17 1031.86 1031.43 1030.93 1030.39 1029.85 1029.33 1028.82 1028.32 1027.82 1027.30 1026.74 1026.14 1025.51 1024.86 1024.20 1023.53 1022.88 1022.22 1021.56 1020.88 1020.17 1019.42
1031.30 1031.30 1031.27 1031.18 1031.04 1030.84 1030.61 1030.36 1030.13 1029.96 1029.88 1029.92 1030.08 1030.37 1030.75 1031.18 1031.62 1032.00 1032.28 1032.42 1032.41 1032.26 1031.97 1031.59 1031.14 1030.67 1030.20 1029.74 1029.28 1028.82 1028.34 1027.83 1027.28 1026.69 1026.06 1025.40 1024.73 1024.06 1023.40 1022.74 1022.07 1021.39 1020.69 1019.96
1032.46 1032.51 1032.52 1032.45 1032.32 1032.13 1031.87 1031.59 1031.31 1031.06 1030.88 1030.79 1030.81 1030.94 1031.15 1031.42 1031.70 1031.95 1032.12 1032.20 1032.16 1032.01 1031.77 1031.46 1031.10 1030.73 1030.35 1029.98 1029.60 1029.20 1028.77 1028.30 1027.77 1027.19 1026.56 1025.90 1025.22 1024.55 1023.88 1023.21 1022.55 1021.88 1021.19 1020.49
1033.68 1033.74 1033.71 1033.60 1033.41 1033.15 1032.82 1032.46 1032.10 1031.77 1031.49 1031.29 1031.19 1031.19 1031.26 1031.39 1031.54 1031.66 1031.75 1031.77 1031.71 1031.58 1031.39 1031.15 1030.90 1030.63 1030.37 1030.10 1029.82 1029.50 1029.13 1028.70 1028.20 1027.63 1027.01 1026.35 1025.66 1024.97 1024.29 1023.62 1022.96 1022.30 1021.64 1020.97
1034.81 1034.80 1034.69 1034.48 1034.18 1033.81 1033.39 1032.94 1032.49 1032.08 1031.73 1031.46 1031.28 1031.19 1031.17 1031.20 1031.26 1031.31 1031.33 1031.31 1031.24 1031.13 1030.98 1030.82 1030.66 1030.49 1030.33 1030.16 1029.97 1029.73 1029.42 1029.03 1028.56 1028.01 1027.39 1026.72 1026.03 1025.32 1024.63 1023.95 1023.28 1022.63 1021.99 1021.36
1035.66 1035.55 1035.32 1034.98 1034.55 1034.06 1033.53 1032.99 1032.48 1032.03 1031.65 1031.36 1031.16 1031.05 1031.00 1030.99 1031.01 1031.02 1031.01 1030.97 1030.89 1030.80 1030.69 1030.58 1030.48 1030.39 1030.31 1030.21 1030.09 1029.90 1029.64 1029.29 1028.84 1028.30 1027.68 1027.00 1026.29 1025.57 1024.85 1024.16 1023.49 1022.84 1022.21 1021.61
1036.07 1035.85 1035.49 1035.02 1034.46 1033.86 1033.25 1032.66 1032.13 1031.68 1031.33 1031.08 1030.92 1030.85 1030.83 1030.85 1030.88 1030.90 1030.88 1030.84 1030.76 1030.67 1030.58 1030.50 1030.43 1030.37 1030.33 1030.27 1030.18 1030.03 1029.79 1029.45 1029.01 1028.47 1027.85 1027.16 1026.43 1025.69 1024.95 1024.24 1023.56 1022.90 1022.29 1021.70
1035.96 1035.62 1035.14 1034.56 1033.92 1033.25 1032.61 1032.02 1031.52 1031.13 1030.86 1030.70 1030.65 1030.67 1030.74 1030.83 1030.91 1030.96 1030.97 1030.93 1030.86 1030.77 1030.66 1030.57 1030.50 1030.43 1030.38 1030.32 1030.22 1030.07 1029.83 1029.49 1029.05 1028.50 1027.87 1027.17 1026.42 1025.67 1024.92 1024.19 1023.50 1022.84 1022.22 1021.65
1035.32 1034.88 1034.32 1033.68 1033.00 1032.32 1031.70 1031.17 1030.75 1030.47 1030.33 1030.31 1030.39 1030.54 1030.73 1030.92 1031.07 1031.18 1031.22 1031.20 1031.12 1031.01 1030.88 1030.75 1030.63 1030.52 1030.42 1030.32 1030.18 1029.99 1029.73 1029.37 1028.91 1028.36 1027.72 1027.02 1026.27 1025.51 1024.76 1024.03 1023.33 1022.68 1022.07 1021.51
1034.22 1033.72 1033.13 1032.47 1031.82 1031.20 1030.66 1030.23 1029.95 1029.82 1029.83 1029.96 1030.20 1030.49 1030.80 1031.09 1031.32 1031.48 1031.55 1031.54 1031.45 1031.30 1031.12 1030.93 1030.74 1030.56 1030.38 1030.20 1030.00 1029.75 1029.45 1029.06 1028.59 1028.03 1027.40 1026.71 1025.98 1025.24 1024.50 1023.78 1023.10 1022.47 1021.89 1021.36
1032.81 1032.28 1031.70 1031.10 1030.53 1030.03 1029.62 1029.36 1029.24 1029.27 1029.44 1029.73 1030.10 1030.51 1030.92 1031.29 1031.58 1031.77 1031.86 1031.83 1031.71 1031.52 1031.28 1031.00 1030.72 1030.45 1030.18 1029.91 1029.63 1029.32 1028.96 1028.55 1028.07 1027.52 1026.91 1026.26 1025.57 1024.87 1024.17 1023.50 1022.87 1022.28 1021.74 1021.26
Thickness
5517 5514 5516 5525 5532 5537 5540 5542 5547 5559 5575 5576 5579 5587 5600 5609 5613 5618 5623 5630 5638 5646 5654 5659 5663 5666 5668 5669 5671 5672 5673 5673 5673 5671 5669 5667 5666 5667 5667 5667 5667 5666 5665 5664
5502 5507 5521 5527 5531 5533 5535 5537 5542 5555 5567 5569 5570 5578 5592 5601 5607 5613 5618 5624 5631 5637 5643 5648 5653 5657 5660 5662 5664 5665 5667 5668 5668 5667 5666 5664 5662 5661 5661 5660 5660 5659 5659 5658
5499 5511 5520 5522 5524 5526 5530 5532 5538 5545 5555 5561 5561 5567 5581 5593 5601 5608 5614 5620 5626 5631 5636 5640 5644 5649 5652 5655 5657 5660 5661 5662 5661 5660 5658 5655 5653 5652 5651 5651 5651 5652 5652 5651
5496 5508 5513 5516 5519 5522 5523 5535 5538 5541 5538 5539 5549 5544 5568 5580 5589 5598 5603 5608 5616 5623 5629 5634 5638 5642 5646 5649 5651 5653 5654 5654 5654 5654 5652 5651 5649 5647 5646 5646 5645 5644 5644 5643
5490 5501 5506 5509 5517 5520 5523 5534 5534 5534 5532 5531 5539 5537 5555 5571 5577 5586 5593 5598 5605 5613 5620 5626 5632 5637 5640 5642 5643 5645 5646 5646 5647 5647 5647 5644 5642 5641 5639 5638 5637 5636 5635 5635
5487 5496 5500 5506 5514 5517 5521 5522 5523 5521 5519 5519 5532 5533 5544 5556 5570 5578 5585 5590 5597 5605 5611 5617 5623 5627 5630 5632 5634 5636 5637 5638 5639 5639 5639 5637 5635 5633 5631 5629 5628 5627 5626 5626
5475 5487 5495 5501 5502 5507 5508 5503 5498 5499 5501 5513 5530 5530 5538 5553 5563 5570 5576 5582 5588 5595 5602 5608 5612 5615 5619 5621 5624 5627 5629 5629 5630 5631 5631 5630 5628 5627 5626 5624 5622 5620 5618 5617
5461 5471 5485 5492 5495 5496 5498 5499 5494 5492 5497 5508 5520 5522 5533 5545 5553 5561 5567 5574 5580 5585 5592 5598 5602 5606 5608 5612 5614 5617 5619 5621 5621 5622 5621 5621 5620 5619 5618 5617 5615 5613 5612 5611
5455 5466 5484 5490 5494 5495 5493 5492 5498 5491 5490 5494 5504 5515 5529 5539 5544 5550 5555 5561 5567 5574 5580 5586 5591 5595 5598 5601 5605 5608 5609 5610 5611 5612 5612 5611 5611 5610 5609 5608 5607 5605 5604 5602
5453 5458 5474 5483 5489 5489 5491 5490 5486 5484 5484 5489 5498 5505 5511 5521 5529 5536 5541 5547 5555 5562 5567 5573 5578 5583 5587 5591 5593 5596 5598 5600 5600 5601 5602 5602 5601 5600 5599 5598 5596 5596 5594 5593
5451 5451 5461 5470 5473 5476 5479 5482 5480 5480 5484 5486 5489 5498 5507 5510 5517 5522 5527 5533 5540 5547 5552 5557 5562 5568 5573 5577 5580 5582 5584 5586 5587 5589 5590 5590 5589 5590 5589 5588 5587 5586 5584 5583
5447 5445 5446 5458 5468 5475 5475 5473 5473 5474 5474 5476 5479 5487 5501 5503 5507 5512 5516 5522 5527 5532 5537 5542 5547 5553 5557 5561 5564 5567 5570 5573 5575 5577 5578 5578 5578 5578 5577 5577 5576 5576 5574 5573
5443 5438 5440 5450 5458 5462 5461 5464 5467 5466 5465 5465 5468 5479 5491 5494 5498 5502 5505 5508 5513 5518 5523 5527 5533 5538 5541 5545 5549 5552 5556 5559 5561 5563 5565 5565 5565 5566 5566 5565 5565 5564 5564 5562
5441 5427 5431 5439 5444 5444 5446 5453 5459 5460 5455 5456 5462 5471 5480 5483 5486 5490 5493 5495 5498 5504 5510 5514 5517 5522 5526 5530 5533 5537 5541 5545 5547 5549 5551 5551 5552 5553 5553 5553 5553 5553 5552 5551
5427 5419 5423 5431 5438 5439 5440 5446 5451 5451 5451 5452 5458 5462 5469 5471 5473 5478 5481 5484 5488 5492 5496 5501 5503 5507 5511 5515 5519 5523 5527 5530 5534 5535 5536 5537 5538 5539 5540 5540 5540 5540 5540 5539
5414 5414 5419 5427 5436 5439 5437 5440 5443 5445 5447 5449 5450 5452 5459 5460 5463 5465 5469 5473 5476 5479 5483 5487 5491 5494 5498 5502 5506 5509 5512 5516 5519 5520 5521 5523 5524 5525 5526 5526 5526 5526 5526 5526
5406 5406 5409 5415 5424 5430 5425 5430 5433 5437 5438 5442 5443 5447 5450 5451 5453 5455 5458 5461 5465 5468 5472 5475 5477 5480 5484 5488 5492 5496 5499 5502 5504 5506 5508 5509 5510 5511 5511 5512 5512 5512 5512 5512
5400 5400 5397 5401 5407 5404 5419 5425 5428 5430 5431 5432 5435 5438 5440 5441 5443 5446 5448 5450 5454 5457 5461 5463 5465 5468 5471 5475 5479 5483 5485 5488 5490 5492 5494 5495 5496 5497 5497 5497 5497 5497 5498 5498
5400 5399 5390 5386 5385 5397 5414 5416 5416 5419 5421 5422 5425 5427 5429 5431 5434 5436 5439 5440 5443 5446 5449 5452 5454 5456 5459 5462 5466 5469 5471 5474 5476 5478 5480 5481 5483 5483 5483 5484 5484 5484 5484 5484
5395 5391 5384 5376 5380 5390 5405 5409 5409 5409 5408 5411 5413 5416 5417 5421 5419 5422 5427 5428 5431 5434 5437 5440 5442 5444 5447 5449 5452 5455 5457 5459 5461 5464 5466 5467 5469 5470 5470 5470 5471 5471 5471 5471
5378 5375 5373 5369 5369 5382 5393 5398 5404 5398 5399 5402 5403 5405 5406 5406 5408 5410 5414 5417 5420 5422 5425 5428 5430 5432 5435 5437 5440 5442 5443 5445 5447 5450 5452 5453 5454 5455 5457 5457 5458 5458 5458 5457
5367 5364 5363 5362 5364 5377 5389 5390 5388 5387 5390 5392 5394 5395 5395 5396 5398 5400 5403 5406 5408 5410 5413 5416 5418 5420 5422 5425 5427 5428 5430 5432 5435 5436 5438 5439 5440 5442 5443 5444 5444 5444 5444 5443
5363 5365 5363 5365 5372 5378 5379 5379 5381 5381 5381 5383 5384 5385 5386 5386 5388 5389 5392 5394 5396 5399 5402 5404 5406 5408 5410 5411 5414 5415 5417 5419 5421 5423 5425 5426 5426 5427 5429 5430 5430 5430 5430 5430
5361 5362 5361 5361 5367 5369 5372 5372 5374 5374 5373 5375 5376 5376 5377 5377 5377 5378 5380 5382 5384 5387 5389 5391 5393 5395 5397 5398 5400 5403 5405 5407 5409 5411 5412 5413 5413 5414 5415 5416 5417 5417 5417 5417
5357 5356 5355 5358 5362 5364 5367 5366 5366 5366 5366 5367 5367 5368 5368 5368 5369 5369 5370 5372 5374 5375 5377 5379 5381 5383 5384 5386 5388 5390 5392 5395 5396 5398 5399 5400 5400 5401 5402 5403 5404 5405 5405 5406
5352 5352 5352 5358 5359 5356 5359 5360 5360 5358 5358 5359 5359 5359 5359 5360 5359 5360 5361 5362 5363 5364 5366 5367 5369 5370 5372 5373 5375 5377 5379 5381 5383 5385 5386 5387 5388 5388 5389 5390 5391 5392 5394 5395